Location: Fort Worth, Tx
(32.7431°N, 97.3695°W)
Time: 18:15:50
(UTC-04:00)

ITUPSAT 1 - Visible Passes

Search period start: 31 March 2023 00:00
Search period end: 10 April 2023 00:00
Orbit: 699 x 709 km, 98.5° (Epoch: 30 March)

Date Brightness Start Highest point End Pass type
(mag) Time Alt. Az. Time Alt. Az. Time Alt. Az.
02 Apr ? 00:11:17 10° N 00:11:18 10° N 00:11:18 10° N visible
04 Apr ? 00:00:01 10° N 00:00:22 12° N 00:00:22 12° N visible
05 Apr ? 23:48:48 10° N 23:49:25 14° N 23:49:25 14° N visible
07 Apr ? 00:33:00 10° NNW 00:33:24 12° NNW 00:33:24 12° NNW visible
07 Apr ? 23:37:39 10° N 23:38:27 15° N 23:38:27 15° N visible
09 Apr ? 00:21:31 10° NNW 00:22:25 14° NNW 00:22:25 14° NNW visible
09 Apr ? 23:26:34 10° NNE 23:27:27 16° NNE 23:27:27 16° NNE visible
